Location: Adamstown South Public School
(32.9318°S, 151.7012°E)
Time: 14:56:12
(UTC+00:00)

ATLAS 2AS CENTAUR R/B - Pass Details

Date: 07 June 2020
Orbit: 925 x 1286 km, 63.7° (Epoch: 24 June)

Event Time Altitude Azimuth Distance (km) Brightness Sun altitude
Rises 08:09:57 0° 209° (SSW) 3,779 5.7 -15.7°
Reaches altitude 10° 08:12:28 10° 208° (SSW) 2,868 5.1 -16.2°
Maximum altitude 08:19:19 83° 120° (ESE) 1,129 2.7 -17.6°
Drops below altitude 10° 08:26:45 10° 31° (NNE) 3,106 5.0 -19.1°
Sets 08:29:35 0° 30° (NNE) 4,110 5.6 -19.7°
